Hourly Data Report for October 25, 2016

All times are specified in Local Standard Time (LST). Add 1 hour to adjust for Daylight Saving Time where and when it is observed.

RESOLUTE BAY A
NUNAVUT

74°43'01.000" N
94°58'10.000" W
67.70 m
2403498
71924
YRB

Download Data

Hourly Data (October 2016)
Hourly Data Report for October 25, 2016
Temp Definition
°C
Dew Point Temp Definition
°C
Rel Hum Definition
%
Wind Dir Definition
10's deg

Wind Spd Definition
km/h
Visibility Definition
km
Stn Press Definition
kPa
Hmdx Definition


Wind Chill Definition


Weather Definition


TIME
00:00 Legend Double Dagger -7.3 -8.8 89 26 32 2.4 101.32   -16 Snow,Blowing Snow
01:00 Legend Double Dagger -7.5 -9.0 89 26 29 4.0 101.26   -16 Snow,Blowing Snow
02:00 Legend Double Dagger -7.4 -8.8 90 25 27 4.8 101.21   -16 Snow,Blowing Snow
03:00 Legend Double Dagger -7.1 -8.6 89 26 31 4.8 101.17   -16 Snow,Blowing Snow
04:00 Legend Double Dagger -6.8 -8.0 91 26 32 4.0 101.10   -16 Snow,Blowing Snow
05:00 Legend Double Dagger -6.5 -7.9 90 27 37 2.4 101.03   -16 Snow,Blowing Snow
06:00 Legend Double Dagger -6.1 -7.3 91 26 37 3.2 100.97   -15 Snow,Blowing Snow
07:00 Legend Double Dagger -6.5 -7.9 90 26 33 9.7 100.91   -15 Snow,Blowing Snow
08:00 Legend Double Dagger -6.5 -7.7 91 26 35 8.1 100.84   -16 Snow,Blowing Snow
09:00 Legend Double Dagger -6.6 -8.0 90 26 37 1.6 100.76   -16 Snow,Blowing Snow
10:00 Legend Double Dagger -6.8 -8.2 90 26 40 0.8 100.68   -16 Snow,Blowing Snow
11:00 Legend Double Dagger -7.3 -8.8 89 26 40 0.6 100.62   -17 Snow,Blowing Snow
12:00 Legend Double Dagger -8.1 -9.8 88 30 19 4.8 100.59   -15 Snow,Blowing Snow
13:00 Legend Double Dagger -10.8 -13.3 82 3 23 1.2 100.57   -19 Snow,Fog
14:00 Legend Double Dagger -12.7 -15.3 81 1 28 1.2 100.58   -23 Snow,Fog
15:00 Legend Double Dagger -14.8 -17.7 79 1 37 12.9 100.59   -27 Snow,Blowing Snow
16:00 Legend Double Dagger -16.5 -19.3 79 2 31 24.1 100.60   -28 Snow
17:00 Legend Double Dagger -17.7 -20.5 79 33 17 24.1 100.67   -27 Snow
18:00 Legend Double Dagger -18.1 -21.1 78 35 34 24.1 100.68   -31 Snow
19:00 Legend Double Dagger -18.7 -21.8 77 35 13 24.1 100.69   -27 Snow
20:00 Legend Double Dagger -18.6 -21.5 78 32 27 24.1 100.69   -30 Snow
21:00 Legend Double Dagger -18.4 -21.2 79 32 21 24.1 100.73   -29 Snow
22:00 Legend Double Dagger -19.0 -21.9 78 33 30 24.1 100.72   -31 Snow
23:00 Legend Double Dagger -21.0 -23.9 78 31 21 24.1 100.71   -32 LegendNANA

Notes on Data Quality.

Legend

  • E = Estimated
  • M = Missing
  • NA = Not Available
  • ‡ = Partner data that is not subject to review by the National Climate Archives
Date modified: